Time[GMT],gps_lat[degrees_north](-3m),gps_lon[degrees_west](-3m),gps_2_lat[degrees_north](-3m),gps_2_lon[degrees_west](-3m)
2021-11-04 19:00,43.489883423,-67.880332947,43.48,-67.88
2021-11-04 20:00,43.489967346,-67.880264282,43.49,-67.88
2021-11-04 21:00,43.490165710,-67.880203247,43.49,-67.88
2021-11-04 22:00,43.490318298,-67.880203247,43.49,-67.88
2021-11-04 23:00,43.490600586,-67.880264282,43.49,-67.88
2021-11-05 00:00,43.490818024,-67.880401611,43.49,-67.88
2021-11-05 01:00,43.490749359,-67.880386353,43.49,-67.88
2021-11-05 02:00,43.490615845,-67.880348206,43.49,-67.88
2021-11-05 03:00,43.490398407,-67.880447388,43.49,-67.88
2021-11-05 04:00,43.490165710,-67.880531311,43.49,-67.88
2021-11-05 05:00,43.490001678,-67.880599976,43.49,-67.88
2021-11-05 06:00,43.489933014,-67.880630493,43.49,-67.88
2021-11-05 07:00,43.489948273,-67.880615234,43.49,-67.88
2021-11-05 08:00,43.489948273,-67.880531311,43.49,-67.88
2021-11-05 09:00,43.490165710,-67.880569458,43.49,-67.88
2021-11-05 11:00,43.490600586,-67.880516052,43.49,-67.88
2021-11-05 12:00,43.490882874,-67.880447388,43.49,-67.88
2021-11-05 13:00,,,,
2021-11-05 14:00,43.490665436,-67.880470276,43.49,-67.88
2021-11-05 15:00,43.490200043,-67.880531311,43.49,-67.88
2021-11-05 16:00,43.489982605,-67.880569458,43.49,-67.88
2021-11-05 17:00,43.489601135,-67.880584717,43.49,-67.88
2021-11-05 18:00,43.489368439,-67.880783081,43.49,-67.88
2021-11-05 19:00,43.489734650,-67.880630493,43.49,-67.88
2021-11-05 20:00,43.489818573,-67.880569458,43.49,-67.88
2021-11-05 21:00,43.489917755,-67.880416870,43.49,-67.88
2021-11-05 22:00,43.490066528,-67.880348206,43.49,-67.88
2021-11-05 23:00,43.490482330,-67.880531311,43.49,-67.88
2021-11-06 00:00,,,,
2021-11-06 01:00,,,,
2021-11-06 02:00,,,,
2021-11-06 04:00,,,,
2021-11-06 05:00,43.489982605,-67.880233765,43.49,-67.88
2021-11-06 06:00,43.489650726,-67.880249023,43.49,-67.88
2021-11-06 07:00,43.489631653,-67.880302429,43.49,-67.88
2021-11-06 08:00,43.489749908,-67.880599976,43.49,-67.88
2021-11-06 09:00,,,,
2021-11-06 10:00,43.490215302,-67.880416870,43.49,-67.88
2021-11-06 11:00,,,,
2021-11-06 12:00,43.491001129,-67.880348206,43.49,-67.88
2021-11-06 13:00,43.491233826,-67.880485535,43.49,-67.88
2021-11-06 14:00,43.491184235,-67.880317688,43.49,-67.88
2021-11-06 15:00,43.490951538,-67.880279541,43.49,-67.88
2021-11-06 16:00,43.490749359,-67.880249023,43.49,-67.88
2021-11-06 17:00,43.490451813,-67.880332947,43.49,-67.88
2021-11-06 18:00,43.490100861,-67.880447388,43.49,-67.88
2021-11-06 19:00,43.489982605,-67.880546570,43.49,-67.88
2021-11-06 20:00,43.490032196,-67.880416870,43.49,-67.88
2021-11-06 21:00,43.490081787,-67.880317688,43.49,-67.88
2021-11-06 22:00,43.490283966,-67.880096436,43.49,-67.88
2021-11-06 23:00,43.490684509,-67.880134583,43.49,-67.88
2021-11-07 00:00,43.490932465,-67.880050659,43.49,-67.88
2021-11-07 01:00,43.491249084,-67.880302429,43.49,-67.88
2021-11-07 02:00,43.491233826,-67.880020142,43.49,-67.88
2021-11-07 03:00,43.491134644,-67.880035400,43.49,-67.88
2021-11-07 04:00,43.490917206,-67.879981995,43.49,-67.88
2021-11-07 05:00,43.490699768,-67.879936218,43.49,-67.88
2021-11-07 06:00,43.490417480,-67.880065918,43.49,-67.88
2021-11-07 07:00,43.490016937,-67.880317688,43.49,-67.88
2021-11-07 08:00,43.490001678,-67.880516052,43.49,-67.88
2021-11-07 09:00,43.490184784,-67.880470276,43.49,-67.88
2021-11-07 10:00,43.490264893,-67.880279541,43.49,-67.88
2021-11-07 11:00,43.490615845,-67.880668640,43.49,-67.88
2021-11-07 12:00,43.490917206,-67.880485535,43.49,-67.88
2021-11-07 13:00,43.491134644,-67.880279541,43.49,-67.88
2021-11-07 14:00,43.491199493,-67.880302429,43.49,-67.88
2021-11-07 15:00,43.491199493,-67.880332947,43.49,-67.88
2021-11-07 16:00,43.491001129,-67.880233765,43.49,-67.88
2021-11-07 17:00,43.490833282,-67.880218506,43.49,-67.88
2021-11-07 18:00,43.490615845,-67.880264282,43.49,-67.88
2021-11-07 19:00,43.490264893,-67.880317688,43.49,-67.88
2021-11-07 20:00,43.489898682,-67.880630493,43.49,-67.88
2021-11-07 21:00,43.490001678,-67.880584717,43.49,-67.88
2021-11-07 22:00,43.490165710,-67.880447388,43.49,-67.88
2021-11-07 23:00,43.490333557,-67.880386353,43.49,-67.88
2021-11-08 00:00,43.490566254,-67.880317688,43.49,-67.88
2021-11-08 01:00,43.491031647,-67.880432129,43.49,-67.88
2021-11-08 02:00,43.491184235,-67.880332947,43.49,-67.88
2021-11-08 03:00,43.491115570,-67.880317688,43.49,-67.88
2021-11-08 04:00,43.491016388,-67.880363464,43.49,-67.88
2021-11-08 05:00,43.490833282,-67.880416870,43.49,-67.88
2021-11-08 06:00,43.490715027,-67.880432129,43.49,-67.88
2021-11-08 07:00,43.490516663,-67.880569458,43.49,-67.88
2021-11-08 08:00,43.490467072,-67.880584717,43.49,-67.88
2021-11-08 09:00,43.490215302,-67.880752563,43.49,-67.88
2021-11-08 10:00,43.490299225,-67.880546570,43.49,-67.88
2021-11-08 11:00,43.490367889,-67.880584717,43.49,-67.88
2021-11-08 12:00,43.490451813,-67.880615234,43.49,-67.88
2021-11-08 13:00,,,,
2021-11-08 14:00,43.491050720,-67.880416870,43.49,-67.88
2021-11-08 15:00,43.491065979,-67.880401611,43.49,-67.88
2021-11-08 16:00,43.491050720,-67.880416870,43.49,-67.88
2021-11-08 17:00,43.490833282,-67.880531311,43.49,-67.88
2021-11-08 18:00,43.490665436,-67.880599976,43.49,-67.88
2021-11-08 19:00,43.490432739,-67.880668640,43.49,-67.88
2021-11-08 20:00,43.490200043,-67.880569458,,
2021-11-08 21:00,43.490150452,-67.880500793,43.49,-67.88
2021-11-08 22:00,43.490135193,-67.880500793,43.49,-67.88
2021-11-08 23:00,43.490299225,-67.880386353,,
2021-11-09 00:00,43.490501404,-67.880218506,43.49,-67.88
2021-11-09 01:00,43.490898132,-67.880165100,43.49,-67.88
2021-11-09 02:00,43.491165161,-67.880180359,43.49,-67.88
2021-11-09 03:00,43.491115570,-67.880081177,43.49,-67.88
2021-11-09 04:00,,,,
2021-11-09 05:00,43.490982056,-67.880332947,43.49,-67.88
2021-11-09 06:00,43.490768433,-67.880279541,43.49,-67.88
2021-11-09 07:00,43.490566254,-67.880363464,43.49,-67.88
2021-11-09 08:00,43.490451813,-67.880363464,43.49,-67.88
2021-11-09 09:00,43.490283966,-67.880416870,43.49,-67.88
2021-11-09 10:00,43.490165710,-67.880447388,43.49,-67.88
2021-11-09 11:00,43.490264893,-67.880348206,43.49,-67.88
2021-11-09 12:00,43.490367889,-67.880302429,43.49,-67.88
2021-11-09 13:00,43.490684509,-67.880249023,43.49,-67.88
2021-11-09 14:00,43.490917206,-67.880218506,43.49,-67.88
2021-11-09 15:00,43.491218567,-67.880317688,43.49,-67.88
2021-11-09 16:00,43.491050720,-67.880233765,43.49,-67.88
2021-11-09 17:00,43.491065979,-67.880249023,43.49,-67.88
2021-11-09 18:00,43.490951538,-67.880165100,43.49,-67.88
2021-11-09 19:00,43.490818024,-67.880134583,43.49,-67.88
2021-11-09 20:00,43.490432739,-67.880218506,43.49,-67.88
2021-11-09 21:00,43.490165710,-67.880363464,43.49,-67.88
2021-11-09 22:00,43.490081787,-67.880401611,43.49,-67.88
2021-11-09 23:00,43.490249634,-67.880386353,43.49,-67.88
2021-11-10 00:00,43.490215302,-67.880279541,43.49,-67.88
2021-11-10 01:00,43.490348816,-67.880279541,43.49,-67.88
2021-11-10 02:00,43.490550995,-67.880317688,43.49,-67.88
2021-11-10 03:00,43.490833282,-67.880317688,43.49,-67.88
2021-11-10 04:00,43.491085052,-67.880348206,43.49,-67.88
2021-11-10 05:00,43.491134644,-67.880386353,43.49,-67.88
2021-11-10 06:00,43.490966797,-67.880363464,43.49,-67.88
2021-11-10 07:00,43.490783691,-67.880401611,43.49,-67.88
2021-11-10 08:00,43.490600586,-67.880546570,43.49,-67.88
2021-11-10 09:00,43.490467072,-67.880599976,43.49,-67.88
2021-11-10 10:00,43.490283966,-67.880668640,43.49,-67.88
2021-11-10 11:00,43.490264893,-67.880683899,43.49,-67.88
2021-11-10 12:00,43.490299225,-67.880714417,43.49,-67.88
2021-11-10 13:00,43.490432739,-67.880729675,43.49,-67.88
2021-11-10 14:00,43.490665436,-67.880615234,43.49,-67.88
2021-11-10 15:00,43.490833282,-67.880516052,43.49,-67.88
2021-11-10 16:00,43.490833282,-67.880332947,43.49,-67.88
2021-11-10 18:00,43.490600586,-67.880233765,43.49,-67.88
2021-11-10 19:00,43.490249634,-67.880134583,43.49,-67.88
2021-11-10 20:00,43.490016937,-67.880096436,43.49,-67.88
2021-11-10 21:00,43.489883423,-67.880249023,43.49,-67.88
2021-11-10 22:00,43.489665985,-67.880531311,43.49,-67.88
2021-11-10 23:00,43.489700317,-67.880470276,43.49,-67.88
2021-11-11 00:00,43.489700317,-67.880348206,43.49,-67.88
2021-11-11 01:00,43.489868164,-67.880363464,43.49,-67.88
2021-11-11 02:00,43.490081787,-67.880332947,43.49,-67.88
2021-11-11 03:00,43.490135193,-67.880149841,43.49,-67.88
2021-11-11 04:00,,,,
2021-11-11 05:00,43.490467072,-67.879837036,43.49,-67.88
2021-11-11 06:00,,,,
2021-11-11 07:00,43.490367889,-67.879646301,43.49,-67.88
2021-11-11 08:00,43.490051270,-67.879882812,43.49,-67.88
2021-11-11 09:00,,,,
2021-11-11 10:00,43.489749908,-67.880081177,43.49,-67.88
2021-11-11 11:00,43.489665985,-67.880203247,43.49,-67.88
2021-11-11 12:00,43.489631653,-67.880302429,43.49,-67.88
2021-11-11 13:00,43.489631653,-67.880233765,43.49,-67.88
2021-11-11 14:00,43.489799500,-67.880332947,43.49,-67.88
2021-11-11 15:00,43.489933014,-67.880264282,43.49,-67.88
2021-11-11 16:00,43.490150452,-67.880180359,43.49,-67.88
2021-11-11 17:00,43.490699768,-67.880416870,43.49,-67.88
2021-11-11 18:00,43.490665436,-67.880279541,43.49,-67.88
2021-11-11 19:00,43.490501404,-67.880302429,43.49,-67.88
2021-11-11 20:00,43.490432739,-67.880386353,43.49,-67.88
2021-11-11 21:00,43.490215302,-67.880470276,43.49,-67.88
2021-11-11 22:00,43.490051270,-67.880546570,43.49,-67.88
2021-11-11 23:00,43.489883423,-67.880569458,43.49,-67.88
2021-11-12 00:00,43.489868164,-67.880516052,43.49,-67.88
2021-11-12 01:00,43.489917755,-67.880485535,43.49,-67.88
2021-11-12 02:00,43.489982605,-67.880470276,43.49,-67.88
2021-11-12 03:00,43.490135193,-67.880386353,43.49,-67.88
2021-11-12 04:00,43.490234375,-67.880332947,43.49,-67.88
2021-11-12 05:00,43.490566254,-67.880416870,43.49,-67.88
2021-11-12 06:00,43.491134644,-67.880332947,43.49,-67.88
2021-11-12 07:00,43.491050720,-67.880447388,43.49,-67.88
2021-11-12 08:00,43.491016388,-67.880531311,43.49,-67.88
2021-11-12 09:00,43.490932465,-67.880653381,43.49,-67.88
2021-11-12 10:00,43.490734100,-67.880683899,43.49,-67.88
2021-11-12 11:00,,,,
2021-11-12 12:00,,,,
2021-11-12 13:00,43.490417480,-67.881034851,43.49,-67.88
2021-11-12 14:00,43.490665436,-67.881034851,43.49,-67.88
2021-11-12 15:00,,,,
2021-11-12 16:00,43.491065979,-67.880920410,43.49,-67.88
2021-11-12 17:00,43.491382599,-67.880981445,43.49,-67.88
2021-11-12 18:00,,,,
2021-11-12 20:00,43.491416931,-67.880851746,43.49,-67.88
2021-11-12 21:00,43.491283417,-67.880920410,43.49,-67.88
2021-11-12 22:00,43.491199493,-67.881034851,43.49,-67.88
2021-11-12 23:00,43.491031647,-67.881103516,43.49,-67.88
2021-11-13 00:00,43.490898132,-67.881118774,43.49,-67.88
2021-11-13 01:00,43.490749359,-67.880981445,43.49,-67.88
2021-11-13 02:00,43.491115570,-67.880981445,43.49,-67.88
2021-11-13 04:00,43.491050720,-67.880500793,43.49,-67.88
2021-11-13 05:00,43.490951538,-67.880233765,43.49,-67.88
2021-11-13 06:00,43.491115570,-67.880096436,43.49,-67.88
2021-11-13 07:00,,,,
2021-11-13 08:00,43.490966797,-67.880249023,43.49,-67.88
2021-11-13 09:00,43.490932465,-67.880249023,43.49,-67.88
2021-11-13 10:00,43.490749359,-67.880203247,43.49,-67.88
2021-11-13 11:00,,,,
2021-11-13 12:00,43.489917755,-67.880699158,43.49,-67.88
2021-11-13 13:00,43.489784241,-67.880813599,43.49,-67.88
2021-11-13 14:00,,,,
2021-11-13 15:00,43.489933014,-67.881065369,43.49,-67.88
2021-11-13 16:00,43.490116119,-67.881065369,43.49,-67.88
2021-11-13 17:00,43.490367889,-67.881080627,43.49,-67.88
2021-11-13 18:00,,,,
2021-11-13 19:00,43.490917206,-67.880752563,43.49,-67.88
2021-11-13 20:00,43.491085052,-67.880699158,43.49,-67.88
2021-11-13 21:00,43.491001129,-67.880615234,43.49,-67.88
2021-11-13 22:00,43.490932465,-67.880546570,43.49,-67.88
2021-11-13 23:00,43.490833282,-67.880668640,43.49,-67.88
2021-11-14 00:00,43.490634918,-67.880729675,43.49,-67.88
2021-11-14 01:00,43.490451813,-67.880798340,43.49,-67.88
2021-11-14 02:00,43.490333557,-67.880729675,43.49,-67.88
2021-11-14 03:00,43.490531921,-67.880966187,43.49,-67.88
2021-11-14 04:00,43.490650177,-67.879882812,43.49,-67.88
2021-11-14 05:00,43.490867615,-67.879814148,43.49,-67.88
2021-11-14 06:00,43.490951538,-67.879486084,43.49,-67.88
2021-11-14 07:00,43.490917206,-67.879463196,43.49,-67.88
2021-11-14 08:00,43.490383148,-67.879547119,43.49,-67.88
2021-11-14 09:00,43.490917206,-67.879333496,43.49,-67.88
2021-11-14 10:00,43.490783691,-67.879318237,43.49,-67.88
2021-11-14 11:00,43.490734100,-67.879203796,43.49,-67.88
2021-11-14 12:00,43.490249634,-67.879432678,43.49,-67.88
2021-11-14 13:00,43.489982605,-67.879684448,43.49,-67.88
2021-11-14 14:00,43.489818573,-67.879936218,43.49,-67.88
2021-11-14 15:00,43.489833832,-67.880065918,43.49,-67.88
2021-11-14 16:00,43.489883423,-67.880035400,43.49,-67.88
2021-11-14 17:00,43.490001678,-67.880218506,43.49,-67.88
2021-11-14 18:00,43.490467072,-67.880096436,43.49,-67.88
2021-11-14 19:00,43.490898132,-67.880218506,43.49,-67.88
2021-11-14 20:00,43.491218567,-67.880165100,43.49,-67.88
2021-11-14 22:00,,,,
2021-11-14 23:00,43.491100311,-67.879714966,43.49,-67.88
2021-11-15 00:00,43.490898132,-67.879631042,43.49,-67.88
2021-11-15 01:00,43.490715027,-67.879684448,43.49,-67.88
2021-11-15 02:00,43.490482330,-67.879600525,43.49,-67.88
2021-11-15 03:00,43.490348816,-67.879898071,43.49,-67.88
2021-11-15 04:00,,,,
2021-11-15 05:00,43.490318298,-67.879936218,43.49,-67.88
2021-11-15 06:00,,,,
2021-11-15 07:00,43.490848541,-67.880332947,43.49,-67.88
2021-11-15 08:00,43.491134644,-67.880500793,43.49,-67.88
2021-11-15 09:00,43.491268158,-67.880630493,43.49,-67.88
2021-11-15 10:00,43.491317749,-67.880683899,43.49,-67.88
2021-11-15 11:00,,,,
2021-11-15 12:00,43.491199493,-67.880516052,43.49,-67.88
2021-11-15 13:00,43.491218567,-67.880630493,43.49,-67.88
2021-11-15 14:00,43.491031647,-67.880683899,43.49,-67.88
2021-11-15 15:00,43.490665436,-67.880386353,43.49,-67.88
2021-11-15 16:00,43.490417480,-67.879867554,43.49,-67.88
2021-11-15 17:00,43.490417480,-67.879669189,43.49,-67.88
2021-11-15 18:00,43.490467072,-67.879547119,43.49,-67.88
2021-11-15 19:00,43.490581512,-67.879447937,43.49,-67.88
2021-11-15 20:00,43.490650177,-67.879585266,43.49,-67.88
2021-11-15 21:00,43.490715027,-67.879798889,43.49,-67.88
2021-11-15 22:00,43.490768433,-67.879852295,43.49,-67.88
2021-11-15 23:00,43.490768433,-67.879913330,43.49,-67.88
2021-11-16 00:00,43.490749359,-67.879951477,43.49,-67.88
2021-11-16 01:00,43.490264893,-67.879936218,43.49,-67.88
2021-11-16 02:00,43.490283966,-67.879936218,43.49,-67.88
2021-11-16 03:00,43.490032196,-67.880035400,43.49,-67.88
2021-11-16 04:00,43.490001678,-67.879966736,43.49,-67.88
2021-11-16 05:00,43.489948273,-67.879913330,43.49,-67.88
2021-11-16 06:00,43.490066528,-67.879867554,43.49,-67.88
2021-11-16 07:00,43.490318298,-67.879615784,43.49,-67.88
2021-11-16 08:00,43.490383148,-67.879714966,43.49,-67.88
2021-11-16 09:00,43.490749359,-67.879432678,43.49,-67.88
2021-11-16 10:00,43.490783691,-67.879615784,43.49,-67.88
2021-11-16 11:00,43.490734100,-67.879615784,43.49,-67.88
2021-11-16 12:00,43.490600586,-67.879585266,43.49,-67.88
2021-11-16 13:00,43.490367889,-67.879768372,43.49,-67.88
2021-11-16 14:00,43.490051270,-67.879837036,43.49,-67.88
2021-11-16 15:00,43.489849091,-67.879913330,43.49,-67.88
2021-11-16 16:00,43.489765167,-67.880020142,43.49,-67.88
2021-11-16 17:00,43.489765167,-67.880020142,43.49,-67.88
2021-11-16 18:00,43.489734650,-67.879951477,43.49,-67.88
2021-11-16 19:00,43.489883423,-67.879997253,43.49,-67.88
2021-11-16 20:00,43.490150452,-67.879768372,43.49,-67.88
2021-11-16 21:00,43.490566254,-67.879798889,43.49,-67.88
2021-11-16 22:00,43.490932465,-67.879898071,43.49,-67.88
2021-11-16 23:00,43.490951538,-67.879867554,43.49,-67.88
2021-11-17 00:00,43.490932465,-67.879730225,43.49,-67.88
2021-11-17 01:00,43.490581512,-67.879570007,43.49,-67.88
2021-11-17 02:00,43.490165710,-67.879699707,43.49,-67.88
2021-11-17 03:00,43.489948273,-67.879814148,43.49,-67.88
2021-11-17 04:00,43.489799500,-67.879936218,43.49,-67.88
2021-11-17 05:00,,,,
2021-11-17 06:00,43.489700317,-67.879867554,43.49,-67.88
2021-11-17 07:00,43.489685059,-67.879898071,43.49,-67.88
2021-11-17 08:00,43.489982605,-67.879852295,43.49,-67.88
2021-11-17 09:00,,,,
2021-11-17 10:00,43.490566254,-67.880020142,43.49,-67.88
2021-11-17 11:00,,,,
2021-11-17 12:00,43.490882874,-67.880203247,43.49,-67.88
2021-11-17 13:00,,,,
2021-11-17 14:00,43.490333557,-67.880050659,43.49,-67.88
2021-11-17 15:00,43.490135193,-67.880035400,43.49,-67.88
2021-11-17 16:00,43.489883423,-67.880096436,43.49,-67.88
2021-11-17 17:00,43.489883423,-67.880081177,43.49,-67.88
2021-11-17 18:00,43.489883423,-67.880096436,43.49,-67.88
2021-11-17 19:00,43.489982605,-67.879966736,43.49,-67.88
2021-11-17 20:00,43.490135193,-67.880050659,43.49,-67.88
2021-11-17 21:00,43.490333557,-67.880035400,43.49,-67.88
2021-11-17 22:00,43.490531921,-67.880264282,43.49,-67.88
2021-11-17 23:00,43.490749359,-67.880302429,43.49,-67.88
2021-11-18 00:00,43.490783691,-67.880332947,43.49,-67.88
2021-11-18 01:00,43.490768433,-67.880302429,43.49,-67.88
2021-11-18 02:00,43.490634918,-67.880386353,43.49,-67.88
2021-11-18 03:00,43.490600586,-67.880332947,43.49,-67.88
2021-11-18 04:00,43.490531921,-67.880249023,43.49,-67.88
2021-11-18 05:00,43.490333557,-67.880447388,43.49,-67.88
2021-11-18 06:00,43.490348816,-67.880447388,43.49,-67.88
2021-11-18 07:00,,,,
2021-11-18 08:00,43.490715027,-67.880569458,43.49,-67.88
2021-11-18 09:00,43.491016388,-67.880363464,43.49,-67.88
2021-11-18 10:00,,,,
2021-11-18 11:00,,,,
2021-11-18 12:00,43.491481781,-67.880500793,43.49,-67.88
2021-11-18 13:00,,,,
2021-11-18 14:00,43.491317749,-67.880279541,43.49,-67.88
2021-11-18 15:00,43.491115570,-67.879981995,43.49,-67.88
2021-11-18 16:00,43.490715027,-67.879898071,43.49,-67.88
2021-11-18 17:00,43.490467072,-67.880165100,43.49,-67.88
2021-11-18 18:00,43.490333557,-67.880218506,43.49,-67.88
2021-11-18 19:00,,,,
2021-11-18 20:00,43.490734100,-67.879913330,43.49,-67.88
2021-11-18 21:00,43.491016388,-67.880096436,43.49,-67.88
2021-11-18 22:00,43.491268158,-67.880264282,43.49,-67.88
2021-11-18 23:00,43.491401672,-67.880264282,43.49,-67.88
2021-11-19 00:00,,,,
2021-11-19 01:00,43.491401672,-67.880279541,43.49,-67.88
2021-11-19 02:00,43.491367340,-67.880149841,43.49,-67.88
2021-11-19 03:00,43.491249084,-67.880134583,43.49,-67.88
2021-11-19 04:00,43.491050720,-67.879981995,43.49,-67.88
2021-11-19 05:00,,,,
2021-11-19 06:00,43.490432739,-67.879852295,43.49,-67.88
2021-11-19 07:00,43.490234375,-67.879951477,43.49,-67.88
2021-11-19 08:00,43.489898682,-67.880218506,43.49,-67.88
2021-11-19 09:00,43.489917755,-67.880020142,43.49,-67.88
2021-11-19 10:00,43.490032196,-67.879898071,43.49,-67.88
2021-11-19 11:00,43.490215302,-67.879936218,43.49,-67.88
2021-11-19 12:00,43.490432739,-67.880096436,43.49,-67.88
2021-11-19 13:00,43.490665436,-67.880119324,43.49,-67.88
2021-11-19 14:00,43.490650177,-67.880233765,43.49,-67.88
2021-11-19 15:00,43.490501404,-67.879951477,43.49,-67.88
2021-11-19 16:00,43.490215302,-67.879913330,43.49,-67.88
2021-11-19 17:00,43.489933014,-67.879981995,43.49,-67.88
2021-11-19 18:00,43.489784241,-67.880317688,43.49,-67.88
2021-11-19 19:00,43.489898682,-67.880081177,43.49,-67.88
2021-11-19 20:00,43.489818573,-67.879783630,43.49,-67.88
2021-11-19 21:00,43.489765167,-67.879600525,43.49,-67.88
2021-11-19 22:00,43.490016937,-67.879570007,43.49,-67.88
2021-11-19 23:00,43.490135193,-67.879570007,43.49,-67.88
2021-11-20 01:00,43.490215302,-67.879730225,43.49,-67.88
2021-11-20 02:00,43.490249634,-67.880119324,43.49,-67.88
2021-11-20 03:00,43.489749908,-67.880317688,43.49,-67.88
2021-11-20 04:00,43.489715576,-67.880432129,43.49,-67.88
2021-11-20 05:00,43.489616394,-67.880485535,43.49,-67.88
2021-11-20 06:00,43.489551544,-67.880783081,43.49,-67.88
2021-11-20 07:00,43.489551544,-67.880920410,43.49,-67.88
2021-11-20 09:00,43.489749908,-67.880783081,43.49,-67.88
2021-11-20 10:00,,,,
2021-11-20 11:00,43.489883423,-67.880882263,43.49,-67.88
2021-11-20 12:00,43.490482330,-67.880767822,43.49,-67.88
2021-11-20 13:00,43.490715027,-67.880851746,43.49,-67.88
2021-11-20 14:00,43.490749359,-67.880882263,43.49,-67.88
2021-11-20 15:00,43.490684509,-67.880630493,43.49,-67.88
2021-11-20 16:00,,,,
2021-11-20 17:00,,,,
2021-11-20 18:00,43.489967346,-67.880531311,43.49,-67.88
2021-11-20 19:00,43.489818573,-67.880584717,43.49,-67.88
2021-11-20 20:00,43.489784241,-67.880752563,43.49,-67.88
2021-11-20 21:00,43.489917755,-67.880531311,43.49,-67.88
2021-11-20 22:00,43.490081787,-67.880569458,43.49,-67.88
2021-11-20 23:00,43.490165710,-67.880630493,43.49,-67.88
2021-11-21 00:00,43.490417480,-67.880714417,43.49,-67.88
2021-11-21 01:00,43.490516663,-67.880783081,43.49,-67.88
2021-11-21 02:00,43.490566254,-67.880813599,43.49,-67.88
2021-11-21 03:00,43.490615845,-67.880653381,43.49,-67.88
2021-11-21 04:00,43.490684509,-67.880531311,43.49,-67.88
2021-11-21 05:00,,,,
2021-11-21 07:00,43.490283966,-67.880317688,43.49,-67.88
2021-11-21 08:00,,,,
2021-11-21 09:00,43.490348816,-67.880317688,43.49,-67.88
2021-11-21 10:00,43.490516663,-67.880065918,43.49,-67.88
2021-11-21 11:00,,,,
2021-11-21 12:00,,,,
2021-11-21 13:00,43.490951538,-67.879951477,43.49,-67.88
2021-11-21 14:00,,,,
2021-11-21 15:00,43.490749359,-67.880203247,43.49,-67.88
2021-11-21 16:00,43.490650177,-67.880416870,43.49,-67.88
2021-11-21 17:00,43.490383148,-67.880386353,43.49,-67.88
2021-11-21 18:00,,,,
2021-11-21 19:00,43.489868164,-67.880546570,43.49,-67.88
2021-11-21 20:00,43.489685059,-67.880783081,43.49,-67.88
2021-11-21 21:00,,,,
2021-11-21 22:00,,,,
2021-11-21 23:00,43.490734100,-67.880546570,43.49,-67.88
2021-11-22 00:00,43.490932465,-67.880569458,43.49,-67.88
2021-11-22 01:00,,,,
2021-11-22 02:00,43.491165161,-67.880348206,43.49,-67.88
2021-11-22 03:00,,,,
2021-11-22 04:00,43.491149902,-67.880485535,43.49,-67.88
2021-11-22 05:00,43.491016388,-67.880386353,43.49,-67.88
2021-11-22 06:00,,,,
2021-11-22 07:00,43.490501404,-67.880531311,43.49,-67.88
2021-11-22 08:00,43.490184784,-67.880432129,43.49,-67.88
2021-11-22 09:00,43.490165710,-67.880264282,43.49,-67.88
2021-11-22 10:00,,,,
2021-11-22 11:00,43.490550995,-67.880348206,43.49,-67.88
2021-11-22 12:00,43.490699768,-67.880569458,43.49,-67.88
2021-11-22 13:00,43.491115570,-67.880630493,43.49,-67.88
2021-11-22 14:00,,,,
2021-11-22 15:00,43.491165161,-67.880729675,43.49,-67.88
2021-11-22 16:00,43.491165161,-67.880699158,43.49,-67.88
2021-11-22 17:00,43.491100311,-67.880416870,43.49,-67.88
2021-11-22 18:00,43.490783691,-67.880165100,43.49,-67.88
2021-11-22 19:00,43.490417480,-67.880264282,43.49,-67.88
2021-11-22 20:00,43.489967346,-67.880332947,43.49,-67.88
2021-11-22 21:00,43.489833832,-67.880218506,43.49,-67.88
2021-11-22 22:00,43.489833832,-67.880317688,43.49,-67.88
2021-11-22 23:00,43.489917755,-67.880218506,43.49,-67.88
2021-11-23 00:00,43.490001678,-67.880035400,43.49,-67.88
2021-11-23 01:00,43.490116119,-67.879951477,43.49,-67.88
2021-11-23 02:00,43.489948273,-67.880020142,43.49,-67.88
2021-11-23 03:00,43.489898682,-67.880348206,43.49,-67.88
2021-11-23 04:00,,,,
2021-11-23 05:00,43.489799500,-67.880767822,43.49,-67.88
2021-11-23 06:00,43.489749908,-67.880813599,43.49,-67.88
2021-11-23 07:00,43.489665985,-67.880767822,43.49,-67.88
2021-11-23 08:00,,,,
2021-11-23 09:00,43.489715576,-67.880836487,43.49,-67.88
2021-11-23 10:00,43.489685059,-67.880935669,43.49,-67.88
2021-11-23 11:00,43.489765167,-67.880813599,43.49,-67.88
2021-11-23 12:00,43.489784241,-67.880531311,43.49,-67.88
2021-11-23 13:00,43.489898682,-67.880485535,43.49,-67.88
2021-11-23 14:00,43.489898682,-67.880516052,43.49,-67.88
2021-11-23 15:00,43.489967346,-67.880416870,43.49,-67.88